HYLAS 4

Last updated on Sun Jun 21 2026 00:03:07 GMT+0000 (Coordinated Universal Time)

1 43272U 18033B 26171.02887554 -.00000239 00000+0 00000+0 0 9992 2 43272 0.0189 20.7021 0001123 65.0638 159.3513 1.00271055 30095
UTC large
Height (km)
Speed (km/s)
/
Latitude / Longitude
Inclination (degrees)
Orbital Period (minutes)
Azimuth
Elevation
Range (km)
Doppler Factor

Next 0 passes for location: London (51.5072 / 0.1276)

No passes found over London.
HYLAS 4